Location: Suhl
(50.5693°N, 10.6787°E)
Time: 23:30:22
(UTC+01:00)

ISS - Visible Passes

Search period start: 21 March 2019 00:00
Search period end: 31 March 2019 00:00
Orbit: 406 x 411 km, 51.6° (Epoch: 22 March)

Date Brightness Start Highest point End Pass type
(mag) Time Alt. Az. Time Alt. Az. Time Alt. Az.
21 Mar -1.4 20:28:21 10° SSW 20:28:53 13° SSW 20:28:53 13° SSW visible
22 Mar -2.1 19:38:04 10° S 19:40:18 17° SE 19:40:45 17° SE visible
22 Mar -1.0 21:13:09 10° WSW 21:13:33 13° WSW 21:13:33 13° WSW visible
23 Mar -3.4 20:22:16 10° SW 20:25:12 45° S 20:25:12 45° S visible
24 Mar -2.9 19:31:32 10° SSW 19:34:30 31° SSE 19:36:40 15° E visible
24 Mar -2.2 21:07:34 10° WSW 21:09:26 31° W 21:09:26 31° W visible
25 Mar -3.9 20:16:31 10° WSW 20:19:48 76° SSE 20:20:44 43° E visible
25 Mar -0.6 21:53:08 10° W 21:53:29 12° W 21:53:29 12° W visible
26 Mar -3.6 19:25:32 10° SW 19:28:46 55° SSE 19:31:55 11° ENE visible
26 Mar -3.0 21:02:02 10° W 21:04:40 51° WNW 21:04:40 51° WNW visible
27 Mar -3.8 20:10:54 10° W 20:14:13 80° N 20:15:45 29° ENE visible
27 Mar -1.0 21:47:34 10° WNW 21:48:29 17° WNW 21:48:29 17° WNW visible
28 Mar -3.8 19:19:47 10° WSW 19:23:06 85° SSE 19:26:24 10° ENE visible
28 Mar -3.5 20:56:26 10° W 20:59:29 67° NW 20:59:29 67° NW visible
29 Mar -3.7 20:05:18 10° W 20:08:36 71° N 20:10:27 24° E visible
29 Mar -1.4 21:41:55 10° WNW 21:43:10 21° W 21:43:10 21° W visible
30 Mar -3.7 19:14:08 10° W 19:17:27 75° N 19:20:45 10° E visible
30 Mar -3.9 20:50:47 10° WNW 20:54:05 88° NW 20:54:05 88° NW visible
